Regional Weather Roundup
Issued by NWS

Home | Current Version | Previous Version | Text Only | Print | Product List | Glossary Off
Versions: 1 2 3 4 5 6 7 8 9 10 11 12 13 14 15 16 17 18 19 20 21 22 23 24 25 26 27 28 29 30 31 32 33 34 35 36 37 38 39 40 41 42 43 44 45 46 47 48 49 50

000
ASUS43 KOAX 231410
RWRNE

WEATHER ROUNDUP FOR NEBRASKA
NATIONAL WEATHER SERVICE OMAHA NE
800 AM CST TUE JAN 23 2018

NOTES: SATELLITE DATA IS BEING USED TO AUGMENT CLOUD COVER ABOVE
       12000 FEET.
       "FAIR" INDICATES FEW OR NO CLOUDS BELOW 12,000 FEET WITH NO
       SIGNIFICANT WEATHER AND/OR OBSTRUCTIONS TO VISIBILITY.


NEZ001>004-019>022-054>056-231500-
NEBRASKA PANHANDLE

CITY           SKY/WX    TMP DP  RH WIND       PRES   REMARKS
SCOTTSBLUFF    CLEAR     22  15  75 W13       30.16R WCI  10
ALLIANCE       CLEAR     15  13  91 MISG      30.12S
CHADRON        PTCLDY    21  17  84 W8        30.16R WCI  11
GORDON         FAIR      24  19  81 W9        30.11R WCI  14
KIMBALL        CLEAR     22  15  72 NW10      30.16R WCI  12
SIDNEY         CLEAR     24  16  71 NW15G25   30.15R WCI  11
$$

NEZ057>060-069>072-079>082-231500-
SOUTHWEST NEBRASKA

CITY           SKY/WX    TMP DP  RH WIND       PRES   REMARKS
NORTH PLATTE   MOCLDY     9   4  80 NW6       30.14R WCI  -1
IMPERIAL       PTCLDY    20  15  81 W10       30.16R WCI   9
LEXINGTON      CLEAR     14   9  79 W12       30.13R WCI   0
MCCOOK         CLOUDY    22  15  75 NW10      30.15S WCI  11
OGALLALA       CLOUDY    24  18  80 W5        30.14S WCI  18
$$

NEZ005>010-023>029-035>040-094-231500-
NORTH CENTRAL NEBRASKA

CITY           SKY/WX    TMP DP  RH WIND       PRES   REMARKS
VALENTINE      CLOUDY    23  17  78 W8        30.09S WCI  14
AINSWORTH      PTCLDY    21  18  88 W9        30.08S WCI  11
BROKEN BOW     PTCLDY    22  13  68 NW16      30.09S WCI   8
O`NEILL        CLEAR     11  10  95 W6        30.08F WCI   2
ORD            CLEAR      7   5  91 NW7       30.10R WCI  -5
THEDFORD       PTCLDY    23  18  80 W10       30.10S WCI  12
$$

NEZ041-046>049-061>064-073>077-083>087-231500-
SOUTH CENTRAL NEBRASKA

CITY           SKY/WX    TMP DP  RH WIND       PRES   REMARKS
GRAND ISLAND   CLOUDY    15  11  83 W10       30.11R WCI   2
AURORA           N/A     11   9  91 NW8       30.11R WCI  -1
HASTINGS       CLEAR     18  12  77 NW12      30.11R WCI   5
HEBRON         CLOUDY    15  13  92 W3        30.15R
HOLDREGE       CLOUDY    18  13  84 NW5       30.12S WCI  11
KEARNEY        CLEAR     15  12  88 NW12      30.12R WCI   2
YORK           CLOUDY    18  18 100 NW6       30.12R FOG     WCI   9
$$

NEZ011>018-030>034-042>045-231500-
NORTHEAST NEBRASKA

CITY           SKY/WX    TMP DP  RH WIND       PRES   REMARKS
NORFOLK        FLURRIES  25  19  78 NW13      30.09R WCI  14
ALBION         CLOUDY    21  20  93 NW10      30.09S WCI  10
BLAIR          CLOUDY    22  19  90 NW12      30.09R WCI  10
COLUMBUS       CLOUDY    20  19  96 NW12      30.13R WCI   8
FREMONT          N/A    N/A N/A N/A MISG        N/A
TEKAMAH        CLOUDY    23  21  92 N17       30.11R WCI   9
WAYNE            N/A     20  19  96 NW13      30.10R WCI   8
$$

NEZ050>053-065>068-078-088>093-231500-
SOUTHEAST NEBRASKA

CITY           SKY/WX    TMP DP  RH WIND       PRES   REMARKS
LINCOLN        CLOUDY    23  19  85 N10       30.14R WCI  12
OMAHA EPPLEY   CLOUDY    24  20  84 NW15      30.12R WCI  11
BEATRICE       CLOUDY    25  22  89 NW14      30.13R WCI  13
FALLS CITY     CLOUDY    25  21  85 NW13      30.12R WCI  14
NEBRASKA CITY  CLOUDY    24  24 100 N12       30.11S WCI  13
PLATTSMOUTH    CLOUDY    24  21  91 NW12      30.10S WCI  12
$$

NEZ044-045-051>053-067-231500-
OMAHA AREA

CITY           SKY/WX    TMP DP  RH WIND       PRES   REMARKS
OMAHA EPPLEY   CLOUDY    24  20  84 NW15      30.12R WCI  11
BLAIR          CLOUDY    22  19  90 NW12      30.09R WCI  10
FREMONT          N/A    N/A N/A N/A MISG        N/A
MILLARD        CLOUDY    24  20  85 NW12      30.13R WCI  13
OFFUTT AFB     CLOUDY    24  20  84 N9        30.11R WCI  14
PLATTSMOUTH    CLOUDY    24  21  91 NW12      30.10S WCI  12
WAHOO          CLOUDY    23  19  87 N9        30.12S WCI  13
$$




USA.gov is the U.S. government's official web portal to all federal, state and local government web resources and services.